Location: Arboyeti
(42.1122°N, 44.6017°E)
Time: 18:40:32
(UTC+00:00)

X-37B - Pass Details

Date: 27 September 2021
Orbit: 322 x 349 km, 45.0° (Epoch: 28 October)

Event Time Altitude Azimuth Distance (km) Brightness Sun altitude
Exits shadow 01:47:11 25° 295° (WNW) 700 1.4 -13.2°
Maximum altitude 01:48:25 44° 354° (N) 457 0.9 -13.0°
Drops below altitude 10° 01:51:00 11° 69° (ENE) 1,203 4.5 -12.5°
Sets 01:53:07 0° 76° (ENE) 2,065 6.4 -12.1°
